| time (UTC) | temp C | wind direction | speed KPH | gust KPH | rain 1hr cm | rain 24hr cm | rain mn cm | humidity % | barometer mb |
| 20260509102317 | 31 | 132 | 12.9 | 32.2 | 0.00 | 0.00 | 0.00 | 70 | 1010.3 |
| 20260509101604 | 31 | 117 | 12.9 | 33.8 | 0.00 | 0.00 | 0.00 | 69 | 1010.2 |
| 20260509100154 | 32 | 112 | 12.9 | 27.4 | 0.00 | 0.00 | 0.00 | 68 | 1009.9 |
| 20260509100002 | 31 | 104 | 11.3 | 25.7 | 0.00 | 0.00 | 0.00 | 68 | 1009.9 |
| 20260509095145 | 32 | 137 | 16.1 | 27.4 | 0.00 | 0.00 | 0.00 | 67 | 1009.9 |
| 20260509094604 | 32 | 126 | 16.1 | 29.0 | 0.00 | 0.00 | 0.00 | 66 | 1009.8 |
| 20260509094142 | 32 | 101 | 14.5 | 30.6 | 0.00 | 0.00 | 0.00 | 66 | 1009.7 |
| 20260509093112 | 32 | 142 | 14.5 | 30.6 | 0.00 | 0.00 | 0.00 | 66 | 1009.6 |
| 20260509092119 | 32 | 154 | 12.9 | 30.6 | 0.00 | 0.00 | 0.00 | 65 | 1009.5 |
| 20260509091503 | 32 | 92 | 14.5 | 24.1 | 0.00 | 0.00 | 0.00 | 66 | 1009.4 |
| 20260509091135 | 32 | 108 | 12.9 | 30.6 | 0.00 | 0.00 | 0.00 | 67 | 1009.3 |
| 20260509090156 | 32 | 101 | 14.5 | 30.6 | 0.00 | 0.00 | 0.00 | 66 | 1009.2 |
| 20260509090124 | 32 | 123 | 16.1 | 30.6 | 0.00 | 0.00 | 0.00 | 65 | 1009.3 |
| 20260509085123 | 32 | 150 | 12.9 | 37.0 | 0.00 | 0.00 | 0.00 | 65 | 1009.1 |
| 20260509084504 | 32 | 128 | 16.1 | 30.6 | 0.00 | 0.00 | 0.00 | 64 | 1009.1 |
| 20260509084113 | 33 | 128 | 16.1 | 37.0 | 0.00 | 0.00 | 0.00 | 64 | 1009.1 |
| 20260509083103 | 33 | 117 | 17.7 | 33.8 | 0.00 | 0.00 | 0.00 | 62 | 1008.9 |
| 20260509081603 | 33 | 149 | 19.3 | 37.0 | 0.00 | 0.00 | 0.00 | 62 | 1008.8 |
| 20260509080858 | 33 | 159 | 16.1 | 37.0 | 0.00 | 0.00 | 0.00 | 61 | 1008.9 |
| 20260509080002 | 33 | 109 | 20.9 | 37.0 | 0.00 | 0.00 | 0.00 | 61 | 1008.9 |
| 20260509075834 | 33 | 104 | 17.7 | 37.0 | 0.00 | 0.00 | 0.00 | 60 | 1008.9 |
| 20260509074825 | 34 | 131 | 19.3 | 33.8 | 0.00 | 0.00 | 0.00 | 60 | 1008.9 |
| 20260509074604 | 33 | 121 | 19.3 | 35.4 | 0.00 | 0.00 | 0.00 | 60 | 1008.9 |
| 20260509073005 | 34 | 111 | 16.1 | 35.4 | 0.00 | 0.00 | 0.00 | 58 | 1009.1 |
| 20260509072723 | 34 | 113 | 17.7 | 32.2 | 0.00 | 0.00 | 0.00 | 58 | 1009.1 |
| 20260509071505 | 34 | 136 | 17.7 | 32.2 | 0.00 | 0.00 | 0.00 | 58 | 1009.3 |
| 20260509070636 | 34 | 149 | 16.1 | 37.0 | 0.00 | 0.00 | 0.00 | 59 | 1009.3 |
| 20260509065604 | 34 | 164 | 17.7 | 37.0 | 0.00 | 0.00 | 0.00 | 58 | 1009.4 |
| 20260509064533 | 34 | 124 | 19.3 | 35.4 | 0.00 | 0.00 | 0.00 | 57 | 1009.5 |
| 20260509064503 | 34 | 105 | 25.7 | 37.0 | 0.00 | 0.00 | 0.00 | 57 | 1009.6 |
| 20260509063533 | 35 | 134 | 17.7 | 33.8 | 0.00 | 0.00 | 0.00 | 57 | 1009.5 |
| 20260509063122 | 34 | 123 | 14.5 | 32.2 | 0.00 | 0.00 | 0.00 | 58 | 1009.7 |
| 20260509062547 | 34 | 106 | 19.3 | 33.8 | 0.00 | 0.00 | 0.00 | 57 | 1009.7 |
| 20260509061603 | 34 | 118 | 20.9 | 30.6 | 0.00 | 0.00 | 0.00 | 57 | 1009.8 |
| 20260509061540 | 35 | 121 | 16.1 | 29.0 | 0.00 | 0.00 | 0.00 | 57 | 1009.7 |
| 20260509060536 | 35 | 107 | 14.5 | 29.0 | 0.00 | 0.00 | 0.00 | 56 | 1009.7 |
| 20260509060003 | 35 | 139 | 14.5 | 30.6 | 0.00 | 0.00 | 0.00 | 55 | 1009.9 |
| 20260509055528 | 35 | 103 | 16.1 | 33.8 | 0.00 | 0.00 | 0.00 | 55 | 1009.9 |
| 20260509054603 | 34 | 133 | 14.5 | 35.4 | 0.00 | 0.00 | 0.00 | 56 | 1010.0 |
| 20260509054550 | 35 | 139 | 17.7 | 33.8 | 0.00 | 0.00 | 0.00 | 56 | 1009.9 |
| 20260509053007 | 34 | 121 | 16.1 | 33.8 | 0.00 | 0.00 | 0.00 | 55 | 1010.2 |
| 20260509052431 | 35 | 117 | 16.1 | 30.6 | 0.00 | 0.00 | 0.00 | 55 | 1010.2 |
| 20260509051507 | 35 | 171 | 12.9 | 32.2 | 0.00 | 0.00 | 0.00 | 57 | 1010.5 |
| 20260509051415 | 35 | 105 | 17.7 | 30.6 | 0.00 | 0.00 | 0.00 | 57 | 1010.5 |
| 20260509050106 | 35 | 90 | 12.9 | 32.2 | 0.00 | 0.00 | 0.00 | 56 | 1010.7 |
| 20260509045257 | 35 | 144 | 16.1 | 30.6 | 0.00 | 0.00 | 0.00 | 55 | 1011.0 |
| 20260509044504 | 35 | 133 | 17.7 | 29.0 | 0.00 | 0.00 | 0.00 | 54 | 1011.2 |
| 20260509044231 | 35 | 113 | 14.5 | 27.4 | 0.00 | 0.00 | 0.00 | 53 | 1011.2 |
| 20260509043200 | 35 | 121 | 14.5 | 29.0 | 0.00 | 0.00 | 0.00 | 54 | 1011.4 |
| 20260509043105 | 35 | 122 | 16.1 | 29.0 | 0.00 | 0.00 | 0.00 | 54 | 1011.5 |
| 20260509042210 | 35 | 153 | 14.5 | 29.0 | 0.00 | 0.00 | 0.00 | 53 | 1011.6 |
| 20260509041603 | 35 | 148 | 14.5 | 25.7 | 0.00 | 0.00 | 0.00 | 53 | 1011.7 |
| 20260509041208 | 35 | 165 | 12.9 | 24.1 | 0.00 | 0.00 | 0.00 | 53 | 1011.7 |
| 20260509040157 | 35 | 121 | 11.3 | 22.5 | 0.00 | 0.00 | 0.00 | 53 | 1011.8 |
| 20260509040004 | 35 | 126 | 14.5 | 22.5 | 0.00 | 0.00 | 0.00 | 53 | 1011.9 |
| 20260509035149 | 35 | 157 | 11.3 | 27.4 | 0.00 | 0.00 | 0.00 | 54 | 1011.9 |
| 20260509034504 | 34 | 144 | 11.3 | 29.0 | 0.00 | 0.00 | 0.00 | 55 | 1012.0 |
| 20260509034205 | 34 | 107 | 12.9 | 27.4 | 0.00 | 0.00 | 0.00 | 55 | 1012.0 |
| 20260509033218 | 34 | 117 | 11.3 | 22.5 | 0.00 | 0.00 | 0.00 | 57 | 1012.1 |
| 20260509033111 | 33 | 123 | 12.9 | 24.1 | 0.00 | 0.00 | 0.00 | 57 | 1012.2 |
| 20260509032202 | 34 | 119 | 12.9 | 22.5 | 0.00 | 0.00 | 0.00 | 58 | 1012.3 |
| 20260509031603 | 33 | 111 | 12.9 | 22.5 | 0.00 | 0.00 | 0.00 | 58 | 1012.3 |
| 20260509031212 | 33 | 104 | 12.9 | 22.5 | 0.00 | 0.00 | 0.00 | 58 | 1012.3 |
| 20260509030150 | 33 | 127 | 12.9 | 24.1 | 0.00 | 0.00 | 0.00 | 59 | 1012.4 |
| 20260509030010 | 33 | 113 | 14.5 | 25.7 | 0.00 | 0.00 | 0.00 | 59 | 1012.4 |
| 20260509025157 | 34 | 135 | 12.9 | 24.1 | 0.00 | 0.00 | 0.00 | 59 | 1012.4 |
| 20260509024607 | 33 | 140 | 14.5 | 25.7 | 0.00 | 0.00 | 0.00 | 60 | 1012.6 |
| 20260509024200 | 33 | 120 | 11.3 | 24.1 | 0.00 | 0.00 | 0.00 | 60 | 1012.6 |
| 20260509023215 | 33 | 123 | 11.3 | 22.5 | 0.00 | 0.00 | 0.00 | 60 | 1012.6 |
| 20260509023004 | 33 | 120 | 12.9 | 24.1 | 0.00 | 0.00 | 0.00 | 60 | 1012.8 |
| 20260509022144 | 34 | 111 | 11.3 | 22.5 | 0.00 | 0.00 | 0.00 | 60 | 1012.8 |
| 20260509021504 | 33 | 115 | 12.9 | 24.1 | 0.00 | 0.00 | 0.00 | 60 | 1012.9 |
| 20260509021113 | 33 | 117 | 9.7 | 20.9 | 0.00 | 0.00 | 0.00 | 61 | 1012.9 |
| 20260509020107 | 33 | 111 | 9.7 | 17.7 | 0.00 | 0.00 | 0.00 | 61 | 1013.0 |
| 20260509015102 | 33 | 104 | 11.3 | 17.7 | 0.00 | 0.00 | 0.00 | 61 | 1013.2 |
| 20260509014504 | 33 | 106 | 11.3 | 19.3 | 0.00 | 0.00 | 0.00 | 60 | 1013.2 |
| 20260509014123 | 33 | 107 | 8.0 | 17.7 | 0.00 | 0.00 | 0.00 | 62 | 1013.2 |
| 20260509013131 | 33 | 104 | 9.7 | 19.3 | 0.00 | 0.00 | 0.00 | 63 | 1013.2 |
| 20260509013111 | 32 | 104 | 9.7 | 20.9 | 0.00 | 0.00 | 0.00 | 63 | 1013.1 |
| 20260509012137 | 33 | 103 | 9.7 | 19.3 | 0.00 | 0.00 | 0.00 | 64 | 1013.2 |
| 20260509011606 | 32 | 102 | 14.5 | 20.9 | 0.00 | 0.00 | 0.00 | 63 | 1013.3 |
| 20260509011151 | 33 | 99 | 6.4 | 22.5 | 0.00 | 0.00 | 0.00 | 63 | 1013.3 |
| 20260509010212 | 33 | 105 | 9.7 | 22.5 | 0.00 | 0.00 | 0.00 | 63 | 1013.3 |
| 20260509010009 | 32 | 105 | 12.9 | 24.1 | 0.00 | 0.00 | 0.00 | 62 | 1013.4 |
| 20260509005221 | 33 | 91 | 8.0 | 16.1 | 0.00 | 0.00 | 0.00 | 62 | 1013.2 |
| 20260509004604 | 32 | 92 | 12.9 | 17.7 | 0.00 | 0.00 | 0.00 | 62 | 1013.3 |
| 20260509004235 | 33 | 89 | 6.4 | 16.1 | 0.00 | 0.00 | 0.00 | 62 | 1013.2 |
| 20260509003203 | 33 | 86 | 6.4 | 16.1 | 0.00 | 0.00 | 0.00 | 62 | 1013.3 |
| 20260509003004 | 32 | 88 | 6.4 | 17.7 | 0.00 | 0.00 | 0.00 | 62 | 1013.2 |
| 20260509001502 | 32 | 92 | 4.8 | 19.3 | 0.00 | 0.00 | 0.00 | 63 | 1013.3 |
| 20260509001007 | 32 | 93 | 4.8 | 17.7 | 0.00 | 0.00 | 0.00 | 63 | 1013.1 |
| 20260509000010 | 32 | 86 | 4.8 | 14.5 | 0.00 | 0.00 | 0.00 | 64 | 1013.1 |
| 20260508234603 | 31 | 90 | 4.8 | 16.1 | 0.00 | 0.00 | 0.00 | 66 | 1012.9 |
| 20260508233907 | 31 | 90 | 8.0 | 14.5 | 0.00 | 0.00 | 0.00 | 66 | 1012.8 |
| 20260508233003 | 31 | 96 | 8.0 | 16.1 | 0.00 | 0.00 | 0.00 | 66 | 1012.7 |
| 20260508232912 | 31 | 92 | 4.8 | 12.9 | 0.00 | 0.00 | 0.00 | 67 | 1012.7 |
| 20260508231839 | 31 | 93 | 6.4 | 14.5 | 0.00 | 0.00 | 0.00 | 68 | 1012.5 |
| 20260508231503 | 31 | 96 | 9.7 | 14.5 | 0.00 | 0.00 | 0.00 | 67 | 1012.5 |
| 20260508230814 | 31 | 94 | 3.2 | 14.5 | 0.00 | 0.00 | 0.00 | 69 | 1012.5 |
| 20260508225744 | 30 | 100 | 3.2 | 12.9 | 0.00 | 0.00 | 0.00 | 70 | 1012.5 |
| 20260508224509 | 29 | 103 | 4.8 | 9.7 | 0.00 | 0.00 | 0.00 | 73 | 1012.2 |
| 20260508223633 | 29 | 103 | 1.6 | 9.7 | 0.00 | 0.00 | 0.00 | 75 | 1011.9 |
| 20260508223103 | 28 | 103 | 4.8 | 11.3 | 0.00 | 0.00 | 0.00 | 75 | 1011.9 |
| 20260508222611 | 28 | 103 | 3.2 | 9.7 | 0.00 | 0.00 | 0.00 | 76 | 1011.7 |
| 20260508221611 | 28 | 103 | 3.2 | 11.3 | 0.00 | 0.00 | 0.00 | 79 | 1011.7 |
| 20260508220614 | 28 | 103 | 3.2 | 8.0 | 0.00 | 0.00 | 0.00 | 79 | 1011.6 |
| 20260508220002 | 28 | 103 | 6.4 | 9.7 | 0.00 | 0.00 | 0.00 | 79 | 1011.5 |
| 20260508215633 | 28 | 103 | 3.2 | 8.0 | 0.00 | 0.00 | 0.00 | 80 | 1011.4 |
| 20260508214606 | 28 | 103 | 4.8 | 9.7 | 0.00 | 0.00 | 0.00 | 80 | 1011.5 |
| 20260508214600 | 28 | 103 | 3.2 | 9.7 | 0.00 | 0.00 | 0.00 | 80 | 1011.5 |
| 20260508213539 | 28 | 103 | 3.2 | 9.7 | 0.00 | 0.00 | 0.00 | 80 | 1011.4 |
| 20260508213006 | 28 | 103 | 4.8 | 11.3 | 0.00 | 0.00 | 0.00 | 80 | 1011.3 |
| 20260508212556 | 28 | 103 | 1.6 | 9.7 | 0.00 | 0.00 | 0.00 | 80 | 1011.3 |
| 20260508211603 | 28 | 103 | 3.2 | 11.3 | 0.00 | 0.00 | 0.00 | 80 | 1011.4 |
| 20260508211503 | 28 | 103 | 4.8 | 9.7 | 0.00 | 0.00 | 0.00 | 80 | 1011.4 |
| 20260508210604 | 28 | 103 | 3.2 | 11.3 | 0.00 | 0.00 | 0.00 | 80 | 1011.3 |
| 20260508204503 | 28 | 103 | 8.0 | 14.5 | 0.00 | 0.00 | 0.00 | 79 | 1011.2 |
| 20260508204422 | 28 | 103 | 8.0 | 17.7 | 0.00 | 0.00 | 0.00 | 79 | 1011.2 |
| 20260508203426 | 28 | 104 | 8.0 | 17.7 | 0.00 | 0.00 | 0.00 | 79 | 1011.1 |
| 20260508203110 | 28 | 103 | 9.7 | 19.3 | 0.00 | 0.00 | 0.00 | 79 | 1011.2 |
| 20260508202437 | 28 | 107 | 8.0 | 12.9 | 0.00 | 0.00 | 0.00 | 79 | 1011.1 |
| 20260508201604 | 28 | 107 | 6.4 | 14.5 | 0.00 | 0.00 | 0.00 | 79 | 1011.1 |
| 20260508201442 | 28 | 107 | 6.4 | 16.1 | 0.00 | 0.00 | 0.00 | 79 | 1011.0 |
| 20260508200432 | 28 | 108 | 8.0 | 16.1 | 0.00 | 0.00 | 0.00 | 79 | 1011.0 |
| 20260508200010 | 28 | 109 | 11.3 | 17.7 | 0.00 | 0.03 | 0.00 | 79 | 1011.0 |
| 20260508195437 | 28 | 110 | 8.0 | 14.5 | 0.00 | 0.00 | 0.00 | 79 | 1011.0 |
| 20260508194604 | 28 | 109 | 6.4 | 16.1 | 0.00 | 0.03 | 0.00 | 78 | 1011.1 |
| 20260508194407 | 28 | 109 | 8.0 | 14.5 | 0.00 | 0.00 | 0.00 | 79 | 1011.0 |
| 20260508193002 | 28 | 109 | 9.7 | 14.5 | 0.00 | 0.03 | 0.00 | 78 | 1011.0 |
| 20260508192308 | 28 | 107 | 6.4 | 16.1 | 0.00 | 0.00 | 0.00 | 77 | 1010.9 |
| 20260508191505 | 28 | 107 | 9.7 | 19.3 | 0.00 | 0.03 | 0.00 | 77 | 1011.1 |
| 20260508190132 | 28 | 105 | 4.8 | 12.9 | 0.00 | 0.03 | 0.00 | 77 | 1011.1 |
| 20260508185100 | 28 | 105 | 4.8 | 12.9 | 0.00 | 0.03 | 0.00 | 77 | 1011.0 |
| 20260508184502 | 28 | 104 | 6.4 | 14.5 | 0.00 | 0.03 | 0.00 | 77 | 1011.0 |
| 20260508184054 | 28 | 104 | 3.2 | 11.3 | 0.00 | 0.03 | 0.00 | 77 | 1011.0 |
| 20260508183144 | 28 | 104 | 4.8 | 11.3 | 0.00 | 0.03 | 0.00 | 77 | 1011.1 |
| 20260508183021 | 28 | 104 | 6.4 | 14.5 | 0.00 | 0.03 | 0.00 | 77 | 1011.1 |
| 20260508182014 | 28 | 105 | 8.0 | 14.5 | 0.00 | 0.03 | 0.00 | 77 | 1011.1 |
| 20260508181614 | 28 | 105 | 11.3 | 16.1 | 0.00 | 0.03 | 0.00 | 76 | 1011.2 |
| 20260508181004 | 28 | 107 | 8.0 | 16.1 | 0.00 | 0.03 | 0.00 | 76 | 1011.3 |
| 20260508180009 | 28 | 109 | 9.7 | 16.1 | 0.00 | 0.03 | 0.00 | 75 | 1011.3 |
| 20260508180003 | 28 | 109 | 11.3 | 17.7 | 0.00 | 0.03 | 0.00 | 75 | 1011.3 |
| 20260508174602 | 28 | 107 | 8.0 | 16.1 | 0.00 | 0.03 | 0.00 | 75 | 1011.6 |
| 20260508173755 | 29 | 106 | 8.0 | 16.1 | 0.00 | 0.03 | 0.00 | 75 | 1011.7 |
| 20260508173003 | 28 | 107 | 9.7 | 17.7 | 0.00 | 0.03 | 0.00 | 75 | 1011.7 |
| 20260508172806 | 29 | 102 | 9.7 | 16.1 | 0.00 | 0.03 | 0.00 | 75 | 1011.6 |
| 20260508171804 | 29 | 100 | 8.0 | 16.1 | 0.00 | 0.03 | 0.00 | 75 | 1011.5 |
| 20260508171602 | 28 | 105 | 9.7 | 16.1 | 0.00 | 0.03 | 0.00 | 75 | 1011.5 |
| 20260508170803 | 29 | 95 | 8.0 | 17.7 | 0.00 | 0.03 | 0.00 | 75 | 1011.6 |
| 20260508165756 | 29 | 90 | 8.0 | 17.7 | 0.00 | 0.03 | 0.00 | 74 | 1011.7 |
| 20260508164810 | 29 | 94 | 6.4 | 14.5 | 0.00 | 0.03 | 0.00 | 74 | 1011.8 |
| 20260508164602 | 28 | 91 | 6.4 | 16.1 | 0.00 | 0.03 | 0.00 | 74 | 1011.9 |
| 20260508163736 | 29 | 98 | 8.0 | 14.5 | 0.00 | 0.03 | 0.00 | 75 | 1012.0 |
| 20260508163004 | 28 | 117 | 6.4 | 17.7 | 0.00 | 0.03 | 0.00 | 75 | 1012.1 |
| 20260508162723 | 29 | 77 | 8.0 | 16.1 | 0.00 | 0.03 | 0.00 | 75 | 1012.1 |
| 20260508161654 | 29 | 91 | 9.7 | 19.3 | 0.00 | 0.03 | 0.00 | 75 | 1012.1 |
| 20260508161504 | 28 | 72 | 9.7 | 20.9 | 0.00 | 0.03 | 0.00 | 75 | 1012.1 |
| 20260508160710 | 29 | 84 | 8.0 | 19.3 | 0.00 | 0.03 | 0.00 | 75 | 1012.1 |
| 20260508160103 | 28 | 101 | 11.3 | 20.9 | 0.00 | 0.03 | 0.00 | 75 | 1012.2 |
| 20260508155647 | 29 | 87 | 8.0 | 19.3 | 0.00 | 0.03 | 0.03 | 75 | 1012.2 |
| 20260508154703 | 29 | 80 | 9.7 | 17.7 | 0.00 | 0.03 | 0.03 | 75 | 1012.3 |
| 20260508154502 | 29 | 92 | 11.3 | 19.3 | 0.00 | 0.03 | 0.03 | 75 | 1012.4 |
| 20260508153703 | 29 | 90 | 9.7 | 20.9 | 0.00 | 0.03 | 0.03 | 75 | 1012.4 |
| 20260508153104 | 29 | 104 | 9.7 | 24.1 | 0.00 | 0.03 | 0.03 | 75 | 1012.5 |
| 20260508152713 | 29 | 107 | 11.3 | 24.1 | 0.00 | 0.03 | 0.03 | 76 | 1012.6 |
| 20260508151653 | 29 | 94 | 11.3 | 24.1 | 0.00 | 0.03 | 0.03 | 76 | 1012.6 |
| 20260508151602 | 29 | 109 | 8.0 | 25.7 | 0.00 | 0.03 | 0.03 | 76 | 1012.6 |
| 20260508150627 | 29 | 115 | 12.9 | 20.9 | 0.00 | 0.03 | 0.03 | 76 | 1012.7 |
| 20260508150017 | 29 | 98 | 11.3 | 22.5 | 0.00 | 0.03 | 0.03 | 76 | 1012.7 |
| 20260508145643 | 29 | 119 | 11.3 | 20.9 | 0.00 | 0.03 | 0.03 | 76 | 1012.7 |
| 20260508144635 | 29 | 109 | 11.3 | 20.9 | 0.00 | 0.03 | 0.03 | 76 | 1012.7 |
| 20260508144606 | 29 | 113 | 12.9 | 22.5 | 0.00 | 0.03 | 0.03 | 76 | 1012.8 |
| 20260508142503 | 29 | 109 | 17.7 | 30.6 | 0.00 | 0.03 | 0.03 | 75 | 1012.7 |
| 20260508141503 | 29 | 106 | 17.7 | 32.2 | 0.00 | 0.03 | 0.03 | 75 | 1012.8 |
| 20260508141444 | 30 | 104 | 14.5 | 30.6 | 0.00 | 0.03 | 0.03 | 75 | 1012.7 |
| 20260508140446 | 30 | 115 | 11.3 | 22.5 | 0.00 | 0.03 | 0.03 | 75 | 1012.7 |
| 20260508140003 | 29 | 115 | 11.3 | 20.9 | 0.00 | 0.03 | 0.03 | 74 | 1012.9 |
| 20260508135500 | 30 | 111 | 12.9 | 24.1 | 0.00 | 0.03 | 0.03 | 74 | 1012.8 |
| 20260508134608 | 29 | 122 | 14.5 | 24.1 | 0.00 | 0.03 | 0.03 | 73 | 1012.8 |
| 20260508134440 | 30 | 122 | 12.9 | 27.4 | 0.00 | 0.03 | 0.03 | 73 | 1012.6 |
| 20260508133418 | 30 | 109 | 14.5 | 27.4 | 0.00 | 0.03 | 0.03 | 73 | 1012.7 |
| 20260508133002 | 30 | 106 | 14.5 | 29.0 | 0.00 | 0.03 | 0.03 | 73 | 1012.8 |
| 20260508132436 | 30 | 107 | 14.5 | 27.4 | 0.00 | 0.03 | 0.03 | 73 | 1012.6 |
| 20260508131503 | 30 | 130 | 14.5 | 29.0 | 0.00 | 0.03 | 0.03 | 73 | 1012.5 |
| 20260508130231 | 30 | 119 | 14.5 | 24.1 | 0.00 | 0.03 | 0.03 | 72 | 1012.2 |
| 20260508125241 | 30 | 107 | 12.9 | 22.5 | 0.00 | 0.03 | 0.03 | 72 | 1012.2 |
| 20260508124502 | 30 | 92 | 11.3 | 22.5 | 0.00 | 0.03 | 0.03 | 72 | 1012.1 |
| 20260508124255 | 30 | 123 | 11.3 | 20.9 | 0.00 | 0.03 | 0.03 | 72 | 1012.0 |
| 20260508123255 | 30 | 109 | 12.9 | 20.9 | 0.00 | 0.03 | 0.03 | 72 | 1011.9 |
| 20260508123102 | 30 | 99 | 14.5 | 22.5 | 0.00 | 0.03 | 0.03 | 72 | 1012.0 |
| 20260508122258 | 30 | 123 | 11.3 | 19.3 | 0.00 | 0.03 | 0.03 | 71 | 1011.8 |
| 20260508121603 | 30 | 115 | 12.9 | 20.9 | 0.00 | 0.03 | 0.03 | 71 | 1011.7 |
| 20260508121317 | 31 | 96 | 11.3 | 19.3 | 0.00 | 0.03 | 0.03 | 70 | 1011.6 |
| 20260508120250 | 31 | 117 | 11.3 | 24.1 | 0.00 | 0.03 | 0.03 | 70 | 1011.5 |
| 20260508120005 | 30 | 107 | 11.3 | 22.5 | 0.00 | 0.03 | 0.03 | 70 | 1011.5 |
| 20260508115228 | 31 | 123 | 12.9 | 24.1 | 0.00 | 0.03 | 0.03 | 69 | 1011.4 |
| 20260508114604 | 31 | 113 | 12.9 | 24.1 | 0.00 | 0.03 | 0.03 | 69 | 1011.1 |
| 20260508114208 | 31 | 103 | 11.3 | 24.1 | 0.00 | 0.03 | 0.03 | 69 | 1011.1 |
| 20260508113230 | 31 | 110 | 14.5 | 22.5 | 0.00 | 0.03 | 0.03 | 68 | 1010.9 |
| 20260508113005 | 31 | 117 | 14.5 | 24.1 | 0.00 | 0.03 | 0.03 | 68 | 1011.0 |
| 20260508112220 | 31 | 96 | 12.9 | 22.5 | 0.00 | 0.03 | 0.03 | 67 | 1010.9 |
| 20260508111504 | 31 | 132 | 11.3 | 22.5 | 0.00 | 0.03 | 0.03 | 66 | 1010.9 |
| 20260508110103 | 31 | 136 | 12.9 | 25.7 | 0.00 | 0.03 | 0.03 | 64 | 1010.5 |
| 20260508110057 | 31 | 142 | 12.9 | 24.1 | 0.00 | 0.03 | 0.03 | 64 | 1010.5 |
| 20260508105025 | 31 | 134 | 11.3 | 20.9 | 0.00 | 0.03 | 0.03 | 65 | 1010.3 |
| 20260508104605 | 31 | 109 | 11.3 | 22.5 | 0.00 | 0.03 | 0.03 | 66 | 1010.4 |
| 20260508104033 | 31 | 113 | 11.3 | 30.6 | 0.00 | 0.03 | 0.03 | 67 | 1010.2 |
| 20260508103014 | 32 | 111 | 12.9 | 30.6 | 0.00 | 0.03 | 0.03 | 66 | 1010.0 |
| 20260508103003 | 31 | 109 | 14.5 | 32.2 | 0.00 | 0.03 | 0.03 | 66 | 1010.1 |